Weather in Fonadhoo

Maldives     1°50′02″N   73°30′08″E
temp.,
°C
wind,
m/s
gust,
m/s
humid.,
%
clouds,
%
prec.,
mm/h
press.,
hPa
HPBL,
m
24 september, fri
fri2423:00+28wnw897646 1.9 1012955
02:00+28wnw8877100 0.8 1009931
05:00+28nw787543 0.9 1009976
08:00+28wnw567482 1.1 1012883
11:00+28w677534 2.5 1012838
14:00+28wsw7777100 3.9 1009665
17:00+28wnw5673100 4.8 1009777
20:00+28n4468100 0.1 1012527
25 september, sat
sat2523:00+28nne6570100 0.6 1012770
02:00+27nnw5672100 0.0 1009843
05:00+28nw8970100 0.0 1009865
08:00+28wnw677196 0.0 1012940
11:00+29wnw777138 0.0 1011861
14:00+29wnw787397 0.0 10081087
17:00+29wnw7872100 0.1 10091169
20:00+28wnw6776100 2.1 1011768
26 september, sun
sun2623:00+28wnw677792 8.2 1011593
02:00+27w81077100 4.8 1009720
05:00+26w8981100 12.0 1010686
08:00+27wnw8978100 3.8 1012898
11:00+27nw9978100 4.4 1011947
14:00+27w8983100 0.8 1009803
17:00+28w7978100 1.5 1009916
20:00+28w8976100 0.3 1011989
27 september, mon
mon2723:00+28w8977100 2.1 1011901
02:00+27w897986 0.7 1009900
05:00+28w8977100 1.8 1009943
08:00+28w8977100 0.3 10111005
11:00+28wsw8975100 0.3 10101065
14:00+29wsw9107444 0.1 10071125
17:00+29wsw8974100 0.6 10081050
20:00+28wsw8976100 0.4 1010958
28 september, tue
tue2823:00+28wsw8975100 0.8 1011976
02:00+28wsw8977100 0.5 1008933
05:00+28wsw8977100 1.0 1008917
08:00+28wsw7876100 0.4 1011912
11:00+29wsw787480 0.5 10101040
14:00+29sw887177 0.1 10071164
17:00+28wsw7775100 0.3 1007910
20:00+28wsw6776100 0.8 1010888